Regional Weather Roundup
Issued by NWS

Home | Current Version | Previous Version | Text Only | Print | Product List | Glossary On
Versions: 1 2 3 4 5 6 7 8 9 10 11 12 13 14 15 16 17 18 19 20 21 22 23 24 25 26 27 28 29 30 31 32 33 34 35 36 37 38 39 40 41 42 43 44 45 46 47 48 49 50
000
ASUS44 KLUB 300801
RWRTX
WEST TEXAS WEATHER ROUNDUP
NATIONAL WEATHER SERVICE LUBBOCK TX
300 AM CDT MON MAY 30 2016

NOTE: "FAIR" INDICATES FEW OR NO CLOUDS BELOW 12,000 FEET WITH NO
SIGNIFICANT WEATHER AND/OR OBSTRUCTIONS TO VISIBILITY.

TXZ004-006>008-010-012-014-016-OKZ002-300900-
TEXAS PANHANDLE/OKLAHOMA PANHANDLE

CITY           SKY/WX    TMP DP  RH WIND       PRES   REMARKS
AMARILLO       CLEAR     53  49  86 SW6       30.07S
BORGER         CLEAR     55  53  93 W6        30.04F
CANADIAN       CLEAR     56  54  94 E6        30.06S
DALHART        CLEAR     54  50  86 W15       30.08F
DUMAS          CLOUDY    55  51  88 W9        30.07F
GUYMON         CLEAR     54  48  80 NW5       30.07F
HEREFORD       CLEAR     52  51  97 W8        30.10F
$$

TXZ026-029-035-045-048-300900-
SOUTHERN PANHANDLE/SOUTH PLAINS/ROLLING PLAINS

CITY           SKY/WX    TMP DP  RH WIND       PRES   REMARKS
CHILDRESS      CLOUDY    60  58  92 NE6       30.04R
LUBBOCK        PTCLDY    56  53  90 SE6       30.07S
SNYDER           N/A     59  57  94 E6        30.04F
$$

TXZ052-054-060>062-072-078-127-140-154-169-300900-
PERMIAN BASIN/CONCHO VALLEY/BIG COUNTRY/EDWARDS PLATEAU

CITY           SKY/WX    TMP DP  RH WIND       PRES   REMARKS
ABILENE        CLOUDY    63  62  97 E7        30.03S
BROWNWOOD      CLOUDY    64  64 100 SE8       30.02F
JUNCTION       MOCLDY    74  68  81 S12       30.00F
MIDLAND        CLEAR     62  55  77 E12       30.06F
ODESSA         CLEAR     61  55  81 E10G22    30.08F
SAN ANGELO     TSTM      64  63  96 E8        30.06R
$$

TXZ055-058-074-075-080-082-300900-
FAR WEST/SOUTHWEST MOUNTAINS/TRANS PECOS

CITY           SKY/WX    TMP DP  RH WIND       PRES   REMARKS
DRYDEN           N/A     70  67  90 NE5       29.95F
EL PASO        PTCLDY    75  40  28 SE9       30.02F
MARFA          CLEAR     58  55  90 N3        30.14F
PRESIDIO       FAIR      76  52  43 NE3       29.99F
$$

TXZ014-016-019-021>030-083-300900
TEXAS TECH WEST TEXAS MESONET/TEXAS PANHANDLE/NORTHERN SOUTH PLAINS

CITY           SKY/WX    TMP DP  RH WIND       PRES   REMARKS
ABERNATHY 5ENE   N/A     53  51  94 S2        30.11S
AMARILLO 9NNE    N/A     53  52  96 SW2       30.08S
AMHERST 1NE      N/A     53  52  95 S2        30.12R
BOOTLEG 11WNW    N/A     48  47  97 W7        30.17R
CANADIAN 6E      N/A     53  52  94 NE10      30.06S
CAPROCK CYN SP   N/A     58  54  85 SW12      30.04F
CHILDRESS 2NNE   N/A     58  56  92 N8        30.05R
CLARENDON 2WSW   N/A     56  52  87 E1        30.06S
DIMMITT 2NE      N/A     52  51  95 S7        30.11S
FLOYDADA 2NNE    N/A     52  52  97 S6        30.06F
FRIONA 2NE       N/A     51  49  95 S2        30.13S
GOODLETT 3W      N/A     61  57  87 N9        30.04R
HART 3N          N/A     53  51  94 S6        30.11R
HEREFORD 2NW     N/A     51  49  93 W7        30.12F
MCLEAN 1E        N/A     55  53  94 NE6       30.07R
MEMPHIS 1NE      N/A     57  56  94 NE6       30.05R
MULESHOE 2SSW    N/A     51  49  95 W2        30.13F
OLTON 6S         N/A     53  51  92 S6        30.11S
PALO DURO SP     N/A     53  50  90 SW5       30.10R
PAMPA 2E         N/A     53  50  90 N8        30.08R
PLAINVIEW 1S     N/A     54  53  97 S3        30.08F
SILVERTON 7ESE   N/A     53  51  94 SW9       30.04F
TULIA 2ENE       N/A     53  52  97 S6        30.09S
TURKEY 2WSW      N/A     57  55  94 SW9       30.04S
$$

TXZ033>036-039>041-045>048-300900
TEXAS TECH WEST TEXAS MESONET/SOUTH PLAINS

CITY           SKY/WX    TMP DP  RH WIND       PRES   REMARKS
AIKEN 3WSW       N/A     54  53  97 S6        30.08F
ANDREWS 2NE      N/A     59  53  81 E10       30.11F
ANTON 6SSW       N/A     56  53  92 SE6       30.10S
BROWNFIELD 2S    N/A     56  52  84 E12       30.10F
DENVR CTY 7WNW   N/A     56  49  77 E9        30.12S
GAIL 2ESE        N/A     57  55  94 S1        30.07F
LAMESA 2SE       N/A     58  55  91 E5        30.09F
LEVELLAND 4S     N/A     55  52  88 E9        30.11S
MORTON 1ENE      N/A     55  52  90 SE7       30.12S
ODONNELL 1N      N/A     58  53  80 E10       30.08F
PLAINS 3N        N/A     56  50  80 E12       30.11F
RALLS 1SE        N/A     56  53  92 SE6       30.08S
REESE CENTER     N/A     56  52  88 SE8       30.09F
SEAGRAVES 1SW    N/A     58  52  79 E7        30.11F
SEMINOLE 2NNE    N/A     58  52  81 E10       30.10F
SLATON 2NE       N/A     56  54  92 SE8       30.08F
SNYDER 3E        N/A     58  57  96 E6        30.04F
SUNDOWN 8SW      N/A     54  51  87 E10       30.11S
TAHOKA 3NNE      N/A     56  54  91 SE7       30.08F
WOLFFORTH 6SSW   N/A     56  53  89 SE10      30.09F
$$

TXZ031-032-036>038-042>044-300900-
TEXAS TECH WEST TEXAS MESONET/ROLLING PLAINS

CITY           SKY/WX    TMP DP  RH WIND       PRES   REMARKS
GRAHAM 5SSW      N/A     57  54  90 SE6       30.08F
GUTHRIE 10WSW    N/A     58  56  92 CALM      30.03R
HASKELL 1NW      N/A     63  60  90 E3        29.99F
JAYTON 1SSE      N/A     58  56  93 S6        30.01F
KNOX CITY 3NW    N/A     62  58  85 N5        30.01R
LK A HENRY 1NW   N/A     59  56  90 S6        30.04F
NORTHFIELD 1S    N/A     56  56  97 SW5       30.04R
ODELL 4ENE       N/A     64  60  87 N3        30.04R
PADUCAH 10SW     N/A     59  56  90 S5        30.03S
POST 1NE         N/A     57  55  91 S6        30.06F
RRING SPRGS 3N   N/A     55  54  97 SW7       30.05R
SEYMOUR 3NW      N/A     65  60  83 E6        30.00R
SPUR 1W          N/A     56  54  93 N2        30.05R
WEINERT 2NNE     N/A     63  60  90 NE5       30.00R
WHITE RVR 6NE    N/A     56  53  89 SW6       30.06S
$$

TXZ052-054-060>062-072-078-127-140-154-169-300900-
TEXAS TECH WEST TEXAS MESONET/PERMIAN BASIN/
CONCHO VALLEY/BIG COUNTRY/EDWARDS PLATEAU

CITY           SKY/WX    TMP DP  RH WIND       PRES   REMARKS
COYANOSA 2N      N/A     67  58  72 NE16      30.03S
JUNCTION 1SSW    N/A     74  70  86 S8        30.03F
MERTZON 3NNE     N/A     62  61  97 NE5       30.08F
SAN ANGELO 7NW   N/A     64  60  87 N3        30.05F
ST LAWRNCE 5SW   N/A     61  56  83 NE14      30.07F
SWEETWATR 11SW   N/A     59  58  98 NE10      30.06F
WALL 1E        LGT RAIN  63  60  90 NE7       30.07F
$$

TXZ055-058-074-075-080-082-300900-
TEXAS TECH WEST TEXAS MESONET/FAR WEST/SOUTHWEST MOUNTAINS/TRANS PECOS

CITY           SKY/WX    TMP DP  RH WIND       PRES   REMARKS
PRSMN GAP BBNP   N/A     72  59  63 SW2       30.02F
GUADLPE MTN NP   N/A     58  55  89 NE7       30.19S
$$




USA.gov is the U.S. government's official web portal to all federal, state and local government web resources and services.